User: anonymous   Login
Location: Hoyos del Collado
(40.3594°N, 5.2003°W)
Time: 09:14:19
(UTC+00:00)
Language:

Tiangong - Orbit

View from above orbital plane
View from above orbital plane
View from above satellite
View from above satellite

Ground track
Ground track

The orbit data is extracted from the following two-line orbital elements,

1 48274U 21035A   24169.93297922  .00034640  00000-0  38693-3 0  9990
2 48274  41.4683  78.5720 0004258 242.0827 117.9582 15.62041124179215
Epoch (UTC): 17 June 2024 22:23:29
Eccentricity: 0.0004258
inclination: 41.4683°
perigee height: 379 km
apogee height: 384 km
right ascension of ascending node: 78.5720°
argument of perigee: 242.0827°
revolutions per day: 15.62041124
mean anomaly at epoch: 117.9582°
orbit number at epoch: 17921

The dashed part of the orbit path shows where the satellite is in the earth's shadow,  

DLR